Overview Statistics Trail Chart Weather Telemetry Raw packets
 

This is the latest recevied weather packets stored in our database for station/object N1ORT. If no packets are shown the sender has not sent any weather packets the latest 10 day(s).

<< 21 22 23 24 25 26 27 >>
Time Temp. Humidity Pressure Rain* Wind** Luminosity Snow
1788474441 21.11° C 95% 1010.5 hPa 0 mm - 26 W/m² -
1788474140 21.67° C 95% 1010.5 hPa 0 mm - 26 W/m² -
1788473836 21.67° C 95% 1010.6 hPa 0 mm - 30 W/m² -
1788473534 21.67° C 95% 1010.6 hPa 0 mm - 29 W/m² -
1788473233 21.67° C 95% 1010.5 hPa 0 mm - 42 W/m² -
1788472928 21.67° C 95% 1010.7 hPa 0 mm - 53 W/m² -
1788472627 21.67° C 94% 1010.8 hPa 0 mm - 65 W/m² -
1788472322 21.67° C 94% 1010.5 hPa 0 mm - 70 W/m² -
1788472020 21.67° C 94% 1010.8 hPa 0 mm - 69 W/m² -
1788471716 21.67° C 94% 1010.6 hPa 0 mm - 45 W/m² -
1788471411 22.22° C 92% 1010.5 hPa 0 mm - 39 W/m² -
1788471107 22.22° C 93% 1010.6 hPa 0 mm - 45 W/m² -
1788470802 21.67° C 93% 1010.6 hPa 0 mm - 67 W/m² -
1788470497 21.67° C 92% 1010.6 hPa 0 mm - 51 W/m² -
1788470214 22.22° C 91% 1010.5 hPa 0 mm - 68 W/m² -
1788469889 22.22° C 91% 1010.5 hPa 0 mm - 179 W/m² -
1788469584 22.22° C 90% 1010.5 hPa 0 mm - 130 W/m² -
1788469280 22.22° C 90% 1010.7 hPa 0 mm - 97 W/m² -
1788468979 22.22° C 91% 1010.3 hPa 0 mm - 139 W/m² -
1788468673 22.22° C 90% 1010.4 hPa 0 mm - 92 W/m² -
1788468369 22.78° C 89% 1010.3 hPa 0 mm - 129 W/m² -
1788468064 23.33° C 87% 1010.5 hPa 0 mm - 160 W/m² -
1788467760 23.33° C 87% 1010.5 hPa 0 mm - 230 W/m² -
1788467454 23.33° C 87% 1010.6 hPa 0 mm - 146 W/m² -
1788467150 23.89° C 85% 1010.3 hPa 0 mm - 203 W/m² -

* Rain latest hour (hover to see other rain measurements)
** Current wind speed in m/s (hover to see current wind gust speed)